TimeMST,TemperatureF,Dew PointF,Humidity,Sea Level PressureIn,VisibilityMPH,Wind Direction,Wind SpeedMPH,Gust SpeedMPH,PrecipitationIn,Events,Conditions,WindDirDegrees,DateUTC
12:53 AM,34.0,17.1,50,29.76,10.0,West,4.6,-,N/A,,Clear,270,2013-02-06 07:53:00
1:53 AM,35.1,19.0,52,29.75,10.0,West,6.9,-,N/A,,Clear,260,2013-02-06 08:53:00
2:53 AM,36.0,19.0,50,29.75,10.0,NW,6.9,-,N/A,,Clear,320,2013-02-06 09:53:00
3:53 AM,34.0,19.0,54,29.76,10.0,West,5.8,-,N/A,,Clear,270,2013-02-06 10:53:00
4:53 AM,33.1,17.1,52,29.80,10.0,West,3.5,-,N/A,,Clear,270,2013-02-06 11:53:00
5:53 AM,33.1,17.1,52,29.82,10.0,North,9.2,-,N/A,,Clear,350,2013-02-06 12:53:00
6:53 AM,35.1,18.0,50,29.84,10.0,NW,8.1,-,N/A,,Partly Cloudy,320,2013-02-06 13:53:00
7:53 AM,35.1,18.0,50,29.87,10.0,NNW,8.1,-,N/A,,Scattered Clouds,340,2013-02-06 14:53:00
8:53 AM,35.1,19.9,54,29.90,10.0,NNW,12.7,24.2,N/A,,Clear,340,2013-02-06 15:53:00
9:53 AM,36.0,21.9,57,29.91,10.0,NNW,20.7,28.8,N/A,,Overcast,330,2013-02-06 16:53:00
10:53 AM,35.1,24.1,64,29.94,10.0,NNW,9.2,-,N/A,,Overcast,340,2013-02-06 17:53:00
11:53 AM,36.0,24.1,62,29.94,10.0,NNW,4.6,-,N/A,,Mostly Cloudy,340,2013-02-06 18:53:00
12:53 PM,37.9,21.9,53,29.93,10.0,NNW,15.0,25.3,N/A,,Scattered Clouds,340,2013-02-06 19:53:00
1:53 PM,37.0,21.0,52,29.94,10.0,NNW,17.3,27.6,N/A,,Mostly Cloudy,330,2013-02-06 20:53:00
2:53 PM,35.1,25.0,67,29.95,10.0,NW,15.0,-,N/A,,Mostly Cloudy,310,2013-02-06 21:53:00
3:53 PM,36.0,21.9,57,29.98,10.0,NW,10.4,-,N/A,,Overcast,310,2013-02-06 22:53:00
4:53 PM,34.0,21.0,59,30.00,10.0,WNW,8.1,-,N/A,,Scattered Clouds,300,2013-02-06 23:53:00
5:53 PM,32.0,19.0,59,30.03,10.0,WNW,5.8,-,N/A,,Overcast,300,2013-02-07 00:53:00
6:53 PM,32.0,19.0,59,30.04,10.0,NW,12.7,-,N/A,,Scattered Clouds,310,2013-02-07 01:53:00
7:53 PM,33.1,19.0,56,30.05,10.0,WNW,12.7,-,N/A,,Mostly Cloudy,300,2013-02-07 02:53:00
8:53 PM,28.9,19.0,67,30.08,10.0,WNW,11.5,-,N/A,,Overcast,290,2013-02-07 03:53:00
9:53 PM,32.0,18.0,56,30.08,10.0,WNW,8.1,-,N/A,,Mostly Cloudy,300,2013-02-07 04:53:00
10:53 PM,32.0,17.1,54,30.09,10.0,West,10.4,-,N/A,,Mostly Cloudy,280,2013-02-07 05:53:00
11:53 PM,26.1,12.9,58,30.13,10.0,WSW,9.2,-,N/A,,Clear,250,2013-02-07 06:53:00